Regional Weather Roundup
Issued by NWS

Home | Current Version | Previous Version | Graphics & Text | Print | Product List | Glossary On
Versions: 1 2 3 4 5 6 7 8 9 10 11 12 13 14 15 16 17 18 19 20 21 22 23 24 25 26 27 28 29 30 31 32 33 34 35 36 37 38 39 40 41 42 43 44 45 46 47 48 49 50
261
ASUS45 KPSR 260910
RWRAZ

ARIZONA HOURLY REGIONAL WEATHER ROUNDUP
NATIONAL WEATHER SERVICE PHOENIX AZ
200 AM MST FRI AUG 26 2016

NOTE: FAIR INDICATES FEW OR NO CLOUDS BELOW 12,000 FEET WITH NO
SIGNIFICANT WEATHER AND/OR OBSTRUCTIONS TO VISIBILITY.

AZZ001>003-036-261000-
NORTHWEST ARIZONA

CITY           SKY/WX    TMP DP  RH WIND       PRES   REMARKS
BULLHEAD CITY  FAIR      93  48  21 SE13      29.78S
KINGMAN        FAIR      75  52  44 SE13      30.00R
$$

AZZ004>008-015-016-018-261000-
NORTH CENTRAL ARIZONA

CITY           SKY/WX    TMP DP  RH WIND       PRES   REMARKS
GRAND CANYON     N/A    N/A N/A N/A MISG      30.27S
PRESCOTT       LGT RAIN  59  57  93 S5        30.17S
FLAGSTAFF      CLOUDY    51  50  96 SW5       30.30F
PAYSON         CLOUDY    61  54  77 NE14      30.21F
PAGE           MOCLDY    63  56  78 SW5       30.15F
$$

AZZ009>014-017-261000-
NORTHEAST ARIZONA

CITY           SKY/WX    TMP DP  RH WIND       PRES   REMARKS
WINSLOW        LGT RAIN  58  54  86 W12       30.23R
SAINT JOHNS    MOCLDY    58  52  80 CALM      30.23F
WINDOW ROCK    FAIR      55  47  74 E8        30.30F
SHOW LOW       FAIR      50  46  87 CALM      30.28F
$$

AZZ023-261000-
GREATER PHOENIX AREA

CITY           SKY/WX    TMP DP  RH WIND       PRES   REMARKS
PHOENIX        MOCLDY    89  54  30 NW7       29.84R
BUCKEYE        MOCLDY    84  55  37 CALM      29.88R
LUKE AFB       MOCLDY    86  57  37 N12       29.85S
DEER VALLEY    FAIR      84  52  33 N15       29.87R
SCOTTSDALE     MOCLDY    84  55  36 CALM      29.88S
MESA-GATEWAY   FAIR      84  55  37 W5        29.89R
$$

AZZ027-028-261000-
SOUTHWEST MARICOPA COUNTY AND PINAL COUNTY

CITY           SKY/WX    TMP DP  RH WIND       PRES   REMARKS
CASA GRANDE    FAIR      84  55  37 SW6       29.90S
GILA BEND      FAIR      86  55  34 S5        29.83S
$$

AZZ503-504-507>509-261000-
SOUTHEAST ARIZONA

CITY           SKY/WX    TMP DP  RH WIND       PRES   REMARKS
TUCSON         MOCLDY    81  60  48 S13       30.00F
DAVIS-MONTHAN  MOCLDY    79  60  51 SW8       29.99S
NOGALES        FAIR      65  57  75 S5        30.10S
SIERRA VISTA   MOCLDY    65  52  61 CALM      30.14S
DOUGLAS        FAIR      65  57  75 SE9       30.11S
SAFFORD        FAIR      72  59  63 CALM      29.99F
$$

AZZ020-021-025-026-031-261000-
SOUTHWEST ARIZONA

CITY           SKY/WX    TMP DP  RH WIND       PRES   REMARKS
YUMA           FAIR      84  74  71 SE9       29.78R
$$

CAZ031-033-041-043-047-048-061-261000-
SOUTHERN CALIFORNIA

CITY           SKY/WX    TMP DP  RH WIND       PRES   REMARKS
DOWNTOWN L.A.  CLOUDY    66  61  84 CALM      29.91S
L.A. AIRPORT   CLOUDY    66  60  81 SW3       29.92S
SAN DIEGO      CLOUDY    66  59  78 CALM      29.94F
BURBANK        CLOUDY    65  59  81 S6        29.92S
ONTARIO        MOCLDY    63  58  83 W5        29.93S
RIVERSIDE      FAIR      63  58  83 CALM      29.93S
PALM SPRINGS   FAIR      81  48  31 S3        29.80S
EL CENTRO NAS  FAIR      82  73  74 SE8       29.77S
IMPERIAL       FAIR      85  75  72 SE7       29.75S
BLYTHE         FAIR      85  66  53 S10       29.79F
NEEDLES        FAIR      93  49  22 SW13      29.79S
$$

NVZ020-UTZ003-261000-
SOUTHERN NEVADA-UTAH

CITY           SKY/WX    TMP DP  RH WIND       PRES   REMARKS
LAS VEGAS      FAIR      84  43  23 N5        29.83S
SALT LAKE CITY FAIR      70  36  28 SE15      30.02S
$$

NMZ009-TXZ055-261000-
NEW MEXICO-WEST TEXAS

CITY           SKY/WX    TMP DP  RH WIND       PRES   REMARKS
ALBUQUERQUE    MOCLDY    67  47  48 N5        30.20S
EL PASO        FAIR      70  58  65 CALM      30.09F
$$


........................KEY........................
SKY/WX - SKY CONDITION/WEATHER
TMP    - TEMPERATURE IN FAHRENHEIT
DP     - DEW POINT IN FAHRENHEIT
RH     - RELATIVE HUMIDITY IN PERCENT
WIND   - DIRECTION AND SPEED IN MILES PER HOUR (MPH)
VRB    - VARIABLE WIND DIRECTION
PRES   - MEAN SEA LEVEL PRESSURE IN INCHES OF MERCURY
         F - FALLING PRESSURE   R - RISING PRESSURE
         S - STEADY PRESSURE
VSB    - VISIBILITY IN MILES
HX     - HEAT INDEX IN FAHRENHEIT
WCI    - WIND CHILL INDEX IN FAHRENHEIT
TC     - TEMPERATURE IN CELSIUS WHICH IS ALSO KNOWN AS
         TEMPERATURE IN CENTIGRADE
AFB    - AIR FORCE BASE
         LUKE AFB IS LUKE AIR FORCE BASE
         DAVIS-MONTHAN IS DAVIS-MONTHAN AIR FORCE BASE
NAS    - NAVAL AIR STATION
         EL CENTRO NAS IS EL CENTRO NAVAL AIR STATION
N/A    - NOT AVAILABLE





USA.gov is the U.S. government's official web portal to all federal, state and local government web resources and services.